Location: Apollinopolis Magna
(24.9792°N, 32.8772°E)
Time: 10:33:58
(UTC+00:00)

Meteor 1-11 Rocket - Pass Details

Date: 02 March 2021
Orbit: 831 x 916 km, 81.2° (Epoch: 15 April)

Event Time Altitude Azimuth Distance (km) Brightness Sun altitude
Rises 17:39:55 0° 188° (S) 3,499 7.0 -25.4°
Reaches altitude 10° 17:42:24 10° 189° (S) 2,551 6.2 -26.0°
Maximum altitude 17:48:12 82° 277° (W) 889 3.7 -27.3°
Drops below altitude 10° 17:53:55 10° 4° (N) 2,503 6.1 -28.6°
Sets 17:56:19 0° 6° (N) 3,429 6.9 -29.1°
